Location: Observatoire
(46.1952°N, 5.3391°E)
Time: 08:17:45
(UTC+01:00)

Altair - Pass Details

Date: 24 February 2026
Orbit: 1502 x 1682 km, 47.2° (Epoch: 9 March)

Event Time Altitude Azimuth Distance (km) Brightness Sun altitude
Rises 09:42:35 0° 292° (WNW) 4,687 9.5 20.2°
Reaches altitude 10° 09:45:43 10° 287° (WNW) 3,722 9.1 20.6°
Maximum altitude 09:54:33 47° 217° (SW) 1,999 8.5 21.8°
Drops below altitude 10° 10:03:43 10° 148° (SSE) 3,844 11.4 22.9°
Sets 10:07:01 0° 142° (SE) 4,851 11.5 23.3°
